Regional Weather Roundup
Issued by NWS Green Bay, WI

Home | Current Version | Previous Version | Graphics & Text | Print | Product List | Glossary Off
Versions: 1 2 3 4 5 6 7 8 9 10 11 12 13 14 15 16 17 18 19 20 21 22 23 24 25 26 27 28 29 30 31 32 33 34 35 36 37 38 39 40 41 42 43 44 45 46 47 48 49 50

000
ASUS43 KGRB 280400
RWRGRB

NORTH-CENTRAL AND NORTHEAST WISCONSIN REGIONAL WEATHER ROUNDUP
NATIONAL WEATHER SERVICE GREEN BAY WI
1100 PM CDT THU APR 27 2017

WIZ005-009-010>012-018-019-280500-
NORTH CENTRAL WISCONSIN

CITY           SKY/WX    TMP DP  RH WIND       PRES   REMARKS
IRONWOOD       CLOUDY    27  24  89 W13       29.65R
MANITOWISH WTR NOT AVBL
ARBOR VITAE    NOT AVBL
EAGLE RIVER    NOT AVBL
LAND O LAKES   NOT AVBL
RHINELANDER    MIX PCPN  29  26  89 W15       29.66R
PHILLIPS       NOT AVBL
ANTIGO         NOT AVBL
TOMAHAWK       NOT AVBL
MERRILL        NOT AVBL
$$

WIZ013-073-280500-
NORTHEAST WISCONSIN

CITY           SKY/WX    TMP DP  RH WIND       PRES   REMARKS
IRON MOUNTAIN  CLOUDY    32  25  75 W10G17    29.64R
MARINETTE      CLOUDY    37  30  75 VRB6      29.71R
$$

WIZ017-030-035>037-045-280500-
CENTRAL WISCONSIN

CITY           SKY/WX    TMP DP  RH WIND       PRES   REMARKS
MEDFORD        NOT AVBL
WAUSAU         MIX PCPN  32  30  92 W12       29.70R
MOSINEE        NOT AVBL
MARSHFIELD     CLOUDY    33  27  78 W14G24    29.71R
WISC RAPIDS    CLOUDY    34  32  92 W7        29.75R
STEVENS POINT  NOT AVBL
WAUPACA        NOT AVBL
SHAWANO        NOT AVBL
CLINTONVILLE   NOT AVBL
WAUTOMA        NOT AVBL
$$

WIZ038-039-048-051-280500-
FOX VALLEY

CITY           SKY/WX    TMP DP  RH WIND       PRES   REMARKS
NWS GREEN BAY  CLOUDY    39  36  89 W10       29.72R
APPLETON       LGT RAIN  37  34  87 W16       29.71R
OSHKOSH        CLOUDY    39  33  79 W9        29.73R
FOND DU LAC    LGT RAIN  40  32  73 W9        29.75R
$$

WIZ022-050-052-280500-
EAST CENTRAL WISCONSIN

CITY           SKY/WX    TMP DP  RH WIND       PRES   REMARKS
EPHRAIM        NOT AVBL
WASHINGTON ISL NOT AVBL
STURGEON BAY   CLOUDY    38  33  82 W10       29.71R
MANITOWOC      NOT AVBL
SHEBOYGAN      CLOUDY    41  37  86 SW12      29.75R
$$

LMZ563-521-522-541>543-280500-
LAKESHORE

STATION/POSITION TIME  TEMP    WIND        PRES    VSBY  WAVE
                       AIR SEA DIR/SP/G                  HT/PER
                 (UTC) (F)     (DEG/KT/KT) (MB)    (MI)  (FT/S)
SHEBOYGAN LKSHOR 0300   43     230/ 13/ 16 1006.8R
KEWAUNEE LKSHORE 0330   40     250/  5/  7 1005.7R
NORTHPORT PIER   0330   38     260/  3/  8 1005.1S
N MID LAKE BUOY  0250   38 37  230/ 12/ 14 1005.7R         4/ 5
CHAMBERS ISLAND  0340   38     220/ 12/ 18 1005.1R
MENOMINEE LKSHOR 0330   38     240/ 14/ 20 1004.9R
$$




USA.gov is the U.S. government's official web portal to all federal, state and local government web resources and services.